#timestamp,LO_Frequency,Hit,StdDev 
1633402815.5,286046997.4,N
1633402835.3,286046995.3,N
1633402855.2,286046997.6,N
1633402875.9,286046995.4,N
1633402895.7,286046997.6,N
1633402915.6,286046997.5,N
1633402935.4,286046997.7,N
1633402985.3,286046996.7,E
1633402995.2,286046998.7,N
1633403015.0,286047002.5,P
1633403015.9,286047002.5,N
1633403035.8,286047002.5,N
1633403055.6,286047003.7,N
1633403075.5,286047003.4,N
1633403095.3,286047005.4,Y
1633403115.1,286047002.6,P
1633403135.9,286047002.6,P
1633403155.7,286047002.5,P
1633403175.6,286047004.4,Y
1633403195.4,286047001.0,P
1633403215.2,286047000.1,N
1633403235.1,286046998.6,N
1633403236.0,286046998.6,N
1633403255.8,286047000.9,N
1633403275.6,286047000.9,N
1633403295.5,286047000.1,N
1633403315.3,286047002.5,N
1633403335.2,286046999.8,N
1633403355.9,286047002.6,N
1633403375.7,286047003.9,N
1633403395.6,286047001.8,N
1633403415.4,286047004.0,N
1633403435.3,286047001.3,N
1633403455.1,286047003.9,N
1633403475.8,286047003.6,N
1633403495.7,286047003.3,N
1633403515.5,286047003.4,N
1633403535.4,286047003.8,N
1633403555.2,286047002.1,N
1633403575.0,286046999.7,N
1633403575.9,286046999.7,N
1633403595.8,286046999.8,N
1633403615.6,286047000.1,N
1633403635.4,286047000.0,N
1633403655.6,286047001.0,N
1633403675.4,286046998.5,N
1633403695.3,286046999.3,N
1633403715.1,286046998.6,N
1633403716.0,286046998.6,N
1633403735.8,286047002.7,N
1633403755.7,286047001.9,N
1633403775.5,286047004.1,N
1633403795.3,286047004.4,N
1633403815.2,286047002.0,N
1633403835.0,286047003.5,N
1633403835.9,286047003.5,N
1633403855.8,286047004.1,N
1633403875.6,286047003.6,N
1633403895.4,286047003.8,N
1633403915.3,286047004.3,N
1633403935.1,286047002.0,N
1633403955.9,286047004.3,N
1633403975.7,286047003.4,N
1633403995.5,286047003.2,N
1633404015.4,286047003.4,N
1633404035.2,286047003.5,N
1633404055.0,286047004.2,N
1633404056.0,286047004.2,N
1633404075.8,286047004.1,N
1633404095.6,286047002.5,N
1633404115.5,286046998.9,N
1633404135.3,286046998.6,N
1633404155.1,286046998.6,N
1633404175.9,286047001.2,N
1633404195.7,286046999.1,N
1633404215.6,286046999.5,N
1633404235.4,286046997.3,N
1633404255.2,286046998.1,N
1633404275.1,286046998.7,N
1633404276.0,286046998.7,N
1633404295.8,286046999.9,N
1633404315.6,286047000.3,N
1633404335.5,286047000.5,N
1633404355.3,286047000.5,N
1633404375.2,286047000.9,N
1633404395.9,286047000.6,N
1633404415.7,286046998.5,N
1633404435.6,286046999.4,N
1633404455.4,286046998.0,N
1633404475.2,286046997.5,N
1633404495.1,286046996.5,N
1633404496.0,286046996.5,N
1633404515.8,286046999.1,N
1633404535.7,286046999.6,N
1633404555.5,286046999.4,N
1633404575.3,286046999.4,N
1633404595.2,286046999.1,N
1633404615.0,286046999.0,N
1633404615.9,286046999.0,N
1633404635.8,286046999.1,N
1633404655.6,286046999.3,N
1633404675.4,286047001.2,N
1633404695.3,286047001.2,N
1633404715.1,286047000.0,N
1633404735.8,286046999.8,N
1633404755.7,286047001.5,N
1633404775.5,286047004.0,Y
1633404795.4,286047004.8,P
1633404815.2,286047007.0,N
1633404835.0,286047009.2,N
1633404835.9,286047009.2,N
1633404855.8,286047009.2,N
1633404875.6,286047010.6,N
1633404895.5,286047008.2,N
1633404915.3,286047010.4,Y
1633404935.1,286047001.6,P
1633404955.9,286046999.9,N
1633404975.7,286046999.9,N
1633404995.5,286047000.0,N
1633405015.4,286046999.7,N
1633405035.2,286047002.3,N
1633405055.1,286047002.2,N
1633405056.0,286047002.2,N
1633405075.8,286047001.4,N
1633405095.6,286047004.1,N
1633405115.5,286047001.9,N
1633405135.3,286047004.4,N
1633405155.1,286047001.6,N
1633405175.9,286047000.5,N
1633405195.7,286047000.1,N
1633405215.6,286047002.5,N
1633405235.4,286047001.5,N
1633405255.2,286047001.3,N
1633405275.1,286047003.6,N
1633405276.0,286047003.6,N
1633405295.8,286047004.1,N
1633405315.7,286047006.0,Y
1633405335.5,286047002.8,P
1633405355.3,286046999.9,N
1633405375.2,286047004.0,P
1633405395.0,286047001.9,N
1633405395.9,286047001.9,N
1633405415.7,286046999.7,N
1633405435.6,286047000.9,N
1633405455.4,286047000.6,N
1633405475.3,286047000.8,N
1633405495.1,286046998.7,N
1633405496.0,286046998.7,N
1633405515.8,286046998.2,N
1633405535.7,286046998.1,N
1633405555.5,286047001.0,N
1633405575.4,286047000.4,N
1633405595.2,286047000.7,N
1633405615.0,286047000.9,N
1633405615.9,286047000.9,N
1633405635.8,286046998.9,N
1633405655.6,286046998.7,N
1633405675.5,286047000.4,N
1633405695.3,286046998.1,N
1633405715.2,286046999.7,N
1633405735.9,286047002.6,N
1633405755.7,286047000.3,N
1633405775.6,286047000.9,N
1633405795.4,286046999.8,N
1633405815.2,286047002.1,N
1633405835.1,286047002.1,N
1633405836.0,286047002.1,N
1633405855.8,286047002.6,N
1633405875.7,286047002.2,N
1633405895.5,286047002.0,N
1633405915.3,286047002.4,N
1633405935.2,286047002.5,N
1633405955.0,286047002.4,N
1633405955.9,286047002.4,N
1633405975.8,286047002.0,N
1633405995.6,286047002.6,N
1633406015.4,286047000.2,N
1633406035.3,286047001.9,N
1633406055.1,286047002.6,N
1633406075.9,286047002.4,N
1633406095.7,286046999.7,N
1633406115.5,286046999.9,N
1633406135.4,286047002.7,N
1633406155.2,286046999.8,N
1633406175.0,286047000.1,N
1633406175.9,286047000.1,N
1633406195.8,286047000.3,N
1633406215.6,286047000.9,N
1633406235.5,286047000.7,N
1633406255.3,286047000.5,N
1633406275.1,286047000.8,N
1633406295.9,286046998.3,N
1633406315.7,286046999.2,N
1633406335.6,286047001.1,N
1633406355.4,286046998.7,N
1633406375.2,286046996.6,N
1633406395.1,286046996.6,N
